Home   Weather   Gandhinagar   Past weeks

Flag for India Past Weather in Gandhinagar, Gujarat, India — Yesterday and Last 2 Weeks

Now
81 °F

Scattered clouds.


Feels Like: 85 °F
Forecast: 76 / 93 °F
Wind: 7 mph from Northwest

Location: Ahmadabad Airport

Current Time: Sep 28, 2016 at 9:09:57 AM

Latest Report: Sep 28, 2016 at 8:30 AM


Visibility: 2 mi

Pressure: 29.83 "Hg

Humidity: 79%

Dew Point: 73 °F

Location of GandhinagarLocation

Past Weather in Gandhinagar — Graph

°F

Gandhinagar Temperature Yesterday

Maximum temperature yesterday: 93 °F (at 3:00 PM)
Minimum temperature yesterday: 79 °F (at 6:00 AM)
Average temperature yesterday: 86 °F

High & Low Weather Summary for the Past Weeks

 TemperatureHumidityPressure
High99 °F (Sep 15, 3:00 PM)94% (Sep 18, 8:30 PM)29.83 "Hg (Sep 18, 8:30 PM)
Low75 °F (Sep 18, 10:00 PM)47% (Sep 15, 3:00 PM)29.56 "Hg (Sep 17, 4:00 PM)
Average86 °F71%29.71 "Hg
* Reported Sep 13 7:30 AM — Sep 28 8:00 AM, Gandhinagar, Weather by CustomWeather, © 2016

Note: Actual official high and low records may vary slightly from our data, if they occured in-between our weather recording intervals... More about our weather records

Advertising

Gandhinagar Weather History for the Previous 24 Hours

Scroll right to see more
 ConditionsComfort  
Time TempWeatherWind HumidityBarometerVisibility
8:00 AM
Wed, Sep 28
79 °FHaze.7 mph84%29.80 "Hg2 mi
7:30 AM79 °FHaze.9 mph84%29.80 "Hg2 mi
7:00 AM79 °FHaze.5 mph84%29.80 "Hg2 mi
6:30 AM79 °FHaze.7 mph84%29.77 "Hg2 mi
5:50 AM79 °FHaze.5 mph84%29.77 "Hg2 mi
5:30 AM79 °FHaze.7 mph84%29.77 "Hg2 mi
5:00 AM79 °FHaze.6 mph84%29.77 "Hg2 mi
4:30 AM79 °FHaze.7 mph84%29.74 "Hg2 mi
3:00 AM81 °FHaze.7 mph79%29.77 "Hg2 mi
2:30 AM81 °FHaze.6 mph79%29.77 "Hg2 mi
2:00 AM81 °FHaze.7 mph79%29.77 "Hg2 mi
1:30 AM82 °FHaze.8 mph70%29.77 "Hg2 mi
1:00 AM82 °FHaze.8 mph70%29.80 "Hg2 mi
12:30 AM84 °FHaze.9 mph66%29.80 "Hg2 mi
11:30 PM
Tue, Sep 27
84 °FHaze.7 mph66%29.80 "Hg2 mi
11:00 PM86 °FHaze.9 mph62%29.80 "Hg2 mi
10:30 PM88 °FHaze.6 mph59%29.80 "Hg2 mi
10:00 PM88 °FClear.5 mph59%29.80 "Hg2 mi
9:30 PM88 °FClear.5 mph55%29.80 "Hg2 mi
9:00 PM88 °FClear.5 mph55%29.77 "Hg2 mi
8:30 PM88 °FClear.3 mph55%29.77 "Hg2 mi
8:00 PM88 °FClear.2 mph62%29.74 "Hg2 mi
7:30 PM90 °FClear.3 mph55%29.74 "Hg2 mi
7:00 PM90 °FClear.2 mph59%29.71 "Hg3 mi
6:30 PM91 °FClear.3 mph56%29.71 "Hg4 mi
6:00 PM93 °FClear.2 mph53%29.71 "Hg5 mi
4:00 PM93 °FClear.7 mph53%29.71 "Hg5 mi
3:30 PM93 °FClear.6 mph56%29.71 "Hg5 mi
3:00 PM93 °FClear.7 mph53%29.74 "Hg5 mi
2:30 PM91 °FClear.8 mph56%29.74 "Hg5 mi
2:00 PM91 °FClear.6 mph59%29.77 "Hg5 mi
1:30 PM91 °FClear.6 mph59%29.77 "Hg4 mi
1:00 PM90 °FClear.7 mph63%29.80 "Hg4 mi
12:30 PM90 °FClear.8 mph63%29.80 "Hg4 mi
12:00 PM88 °FClear.8 mph66%29.83 "Hg4 mi
11:30 AM88 °FClear.6 mph66%29.83 "Hg4 mi
11:00 AM86 °FClear.8 mph66%29.83 "Hg4 mi
10:30 AM86 °FClear.6 mph70%29.83 "Hg4 mi
10:00 AM84 °FClear.8 mph70%29.83 "Hg4 mi
9:30 AM84 °FClear.7 mph70%29.83 "Hg4 mi
9:00 AM82 °FHaze.8 mph74%29.83 "Hg4 mi
Weather by CustomWeather, © 2016

See weather overviewHow to use our weather pages